Showing default

OPS 4947 (TRANSIT 17), 2965

Orbit data source: Space-Track

OPS 4947 (TRANSIT 17), 2965 is a payload satellite owned by USN NAVAIR (US) in LEO that was launched on Mon, 25 Sep 1967 UTC via an SCOUT A launch vehicle from the Air Force Western Test Range (AFWTR). Payload-class satellites include a variety of spacecraft equipped with specific instruments for various scientific and technological missions. These include communications satellites like Starlink; space stations such as the ISS; scientific satellites like the Hubble; Earth observation satellites from companies like Planet Labs, Umbra, and HawkEye 360; GPS; miniature CubeSats for education and research; and military/defense satellites.

Loading next visibility...
Identifier
2965, 1967-092A
Orbit
LEO
Country
Flag of USUS
Related business
Manufacturer
APL
Mission
Spacecraft
Bus & Motor
TRANSIT 5, Unknown motor
Mass
~50 kg wet, ~50 kg dry
Launch date (UTC)
1967-09-25 (58 years ago)
Launch vehicle
SCOUT A
Launch site
Air Force Western Test Range (AFWTR)
Object type
Payload
Rocket body
Debris
Shape & HBR
Unknown
Radar Cross Section
Large (>1 m²)

Expand to show TLE details & history
Last TLE update: 7 hours ago

TLE from 7 hours ago
0 OPS 4947 (TRANSIT 17)
1 02965U 67092A   25289.57994444  .00000141  00000-0  19066-3 0  9999
2 02965  89.2532  28.7771 0048706  44.0107 328.7054 13.53434097863247
Epoch: 2025-10-16T13:55Z
TLE epoch observation values (Epoch: 2025-10-16T13:55:07.199Z)
Latitude
12.3823°
Longitude
154.82259°
Altitude
1,030.941 km
Speed
7.352 km/s
True Right ascension
01h 55m 45s
True Declination
12° 18' 47"
Sunlit
Object was in full shadow at epoch
Visualization orbit readout
Latitude
Unknown
Longitude
Unknown
Altitude
Unknown
Speed
Unknown
Apparent Right ascension
Unknown
Apparent Declination
Unknown
Sunlit
N/A
Visualization observer readout
Local Sidereal Time
15:12:18
Azimuth
Unknown
Elevation
Unknown
Doppler factor
Unknown
Orbital elements
Apogee altitude
1,092.909 km
Perigee altitude
1,020.485 km
Semi-major axis
7,434.834 km
Eccentricity
0.00487
Inclination
89.2532°
RAAN
28.7771°
Arg. of periapsis
44.0107°
True anomaly
328.41397°
Mean anomaly
328.7054°
Eccentric anomaly
328.55984°
Mean motion
3.3856 °/min
Orbital period
106.33 mins
BSTAR
0.00019066
Loading maneuver chart data...
Computing Atmospheric mass density...
Loading historical data...
Loading historical data...
Loading historical data...
Loading historical data...
Loading historical data...
Loading historical data...
Loading historical data...

Documentation

Showing up to 5 results
|